SCP
0 0 0 0 0 0 0 0 0 0 0 0 0 0 0 0 0 0 0 0 -0 0 0 0 0 -0 -0 -0 -0 -0 -0 -0 -0 -0 -0 -0 -0 -0 -0 -0 -0 -0 -0 -0 -0 -0 -0 -0 -0
0 0 0 0 0 0 0 0 0 0 0 0 0 0 0 0 0 0 0 0 0 0 0 0 0 -0 -0 -0 -0 -0 -0 -0 -0 -0 -0 -0 -0 -0 -0 -0 -0 -0 -0 -0 -0 -0 -0 -0 -0
0 0 0 0 0 0 0 0 0 0 0 0 0 0 0 0 0 0 0 0 0 0 0 0 -0 -0 -0 -0 -0 -0 -0 -0 -0 -0 -0 -0 -0 -0 -0 -0 -0 -0 0 0 0 0 0 0 0
0 0 0 0 0 0 0 0 0 0 0 0 0 0 0 0 0 0 0 -0 0 0 0 0 -0 -0 -0 -0 -0 -0 -0 -0 -0 -0 -0 -0 0 0 0 0 0 0 0 0 0 0 0 0 0
0 0 0 0 0 0 0 0 0 0 0 0 0 0 0 0 0 0 0 0 -0 0 0 0 0 -0 -0 -0 -0 0 0 0 -0 -0 0 0 0 0 0 0 0 0 0 0 0 0 0 0 0
0 0 0 0 0 0 0 0 0 0 0 0 0 0 0 0 0 0 0 0 0 0 0 0 0 0 0 0 0 0 0 0 0 0 0 0 0 0 0 0 0 0 0 0 0 0 0 0 0
0 0 0 0 0 0 0 0 0 0 0 0 0 0 0 0 0 0 0 0 0 0 0 0 0 0 0 0 0 0 0 0 0 0 0 0 0 0 0 0 0 0 0 0 0 0 0 0 0
0 0 0 0 0 0 0 0 0 0 0 0 0 0 0 0 0 0 0 0 0 0 0 0 0 0 0 0 0 0 0 0 0 0 0 0 0 0 0 0 0 0 0 0 0 0 0 0 0
0 0 0 0 0 0 0 0 0 0 0 0 0 0 0 0 0 0 0 0 0 0 0 0 0 0 0 0 0 0 0 0 0 0 0 0 0 0 0 0 0 0 0 0 0 0 0 0 0
0 0 0 0 0 0 0 0 0 0 0 0 0 0 0 0 0 -0 0 0 0 0 0 0 0 0 0 0 0 0 0 0 0 0 0 0 0 0 0 0 0 0 0 0 0 0 0 0 0
0 0 0 0 0 0 0 0 0 0 0 0 0 0 0 0 0 0 0 0 -0 0 0 0 0 0 0 0 0 0 0 0 0 0 0 0 0 0 0 0 0 0 0 0 0 0 0 0 0
0 0 0 0 0 0 0 0 0 0 0 0 0 0 0 0 0 0 0 0 0 0 0 0 0 0 0 0 0 0 0 0 0 0 0 0 0 0 0 0 0 0 0 0 0 0 0 0 0
0 0 0 0 0 0 0 0 0 0 0 0 0 0 0 0 0 0 0 0 0 0 0 0 0 0 0 0 0 0 0 0 0 0 0 0 0 0 0 0 0 0 0 0 0 0 0 0 0
0 0 0 0 0 0 0 0 0 0 0 0 0 0 0 0 0 0 0 0 0 0 0 0 0 0 0 0 0 0 0 0 0 0 0 0 0 0 0 0 0 0 0 0 0 0 0 0 0
0 0 0 0 0 0 0 0 0 0 0 0 0 0 0 0 0 0 0 0 0 0 0 0 0 0 0 0 0 0 0 0 0 0 0 0 0 0 0 0 0 0 0 0 0 0 0 0 0
0 0 0 0 0 0 0 0 0 0 0 0 0 0 0 0 0 0 0 0 0 0 0 0 0 0 0 0 0 0 0 0 0 0 0 0 0 0 0 0 0 0 0 0 0 0 0 0 0
0 0 0 0 0 0 0 0 0 0 0 0 0 0 0 0 0 0 0 0 0 0 0 0 0 0 0 0 0 0 0 0 0 0 0 0 0 0 0 0 0 0 0 0 0 0 0 0 0
0 0 0 0 0 0 0 0 0 0 0 0 0 0 0 0 0 0 0 0 0 0 0 0 0 0 0 0 0 0 0 0 0 0 0 0 0 0 0 0 0 0 0 0 0 0 0 0 0
0 0 0 0 0 0 0 0 0 0 0 0 0 0 0 0 0 0 0 0 0 0 0 0 0 0 0 0 0 0 0 0 0 0 0 0 0 0 0 0 0 0 0 0 0 0 0 0 0
0 0 0 0 0 0 0 0 0 0 0 0 0 0 0 0 0 0 0 0 0 0 0 0 0 0 0 0 0 0 0 0 0 0 0 0 0 0 0 0 0 0 0 0 0 0 0 0 0
0 0 0 0 0 0 0 -0 0 0 0 0 0 0 0 0 0 0 0 0 0 0 0 0 0 0 0 0 0 0 0 0 0 0 0 0 0 0 0 0 0 0 0 0 0 0 0 0 0
0 0 0 0 0 0 0 -0 0 0 0 0 0 0 0 0 0 0 0 0 0 0 0 0 0 0 0 0 0 0 0 0 0 0 0 0 0 0 0 0 0 0 0 0 0 0 0 0 0
0 0 0 0 0 0 0 0 0 0 0 0 0 0 0 0 0 0 0 0 0 0 0 0 0 0 0 0 0 0 0 0 0 0 0 0 0 0 0 0 0 0 0 0 0 0 0 0 0
0 0 0 0 0 0 0 0 0 0 0 0 0 0 0 0 0 0 0 0 0 0 0 0 0 0 0 0 0 0 0 0 0 0 0 0 0 0 0 0 0 0 0 0 0 0 0 0 0
0 0 0 0 0 0 0 0 0 0 0 0 0 0 0 0 0 0 0 0 0 0 0 0 0 0 0 0 0 0 0 0 0 0 0 0 0 0 0 0 0 0 0 0 0 0 0 0 0
0 0 0 0 0 0 0 0 0 0 0 0 0 0 0 0 0 0 0 0 0 0 0 0 0 0 0 0 0 0 0 0 0 0 0 0 0 0 0 0 0 0 0 0 0 0 0 0 0
0 0 0 0 0 0 0 0 0 0 0 0 0 0 0 0 0 0 0 0 0 0 0 0 0 0 0 0 0 0 0 0 0 0 0 0 0 0 0 0 0 0 0 0 0 0 0 0 0
0 0 0 0 0 0 0 0 0 0 0 0 0 0 0 0 0 0 0 0 0 0 0 0 0 0 0 0 0 0 0 0 0 0 0 0 0 0 0 0 0 0 0 0 0 0 0 0 0
0 0 0 0 0 0 0 0 0 0 0 0 0 0 0 0 0 0 0 0 0 0 0 0 0 0 0 0 0 0 0 0 0 0 0 0 0 0 0 0 0 0 0 0 0 0 0 0 0
0 0 0 0 0 0 0 0 0 0 0 0 0 0 -0 -0 0 0 0 0 0 0 0 0 0 0 0 0 0 0 0 0 0 0 0 0 0 0 0 0 0 0 0 0 0 0 0 0 0
Wind_Speed_500mb
8 8 5 0 7 9 8 10 4 5 3 5 11 7 14 10 10 9 11 24 27 35 35 34 34 30 30 31 28 25 22 20 19 21 19 16 13 13 13 10 10 11 12 14 17 17 17 16 16
8 7 4 5 8 3 10 9 12 9 12 21 17 14 3 8 11 7 25 28 31 36 36 34 32 33 32 28 26 25 25 22 21 21 18 17 17 15 14 13 14 16 16 18 18 21 21 22 21
9 7 1 7 7 9 8 10 10 7 18 15 10 6 9 7 20 12 24 27 31 38 37 35 34 33 31 29 27 25 25 25 24 21 19 18 17 16 15 14 14 16 16 17 16 18 17 20 20
7 5 5 6 12 13 11 11 12 14 8 13 12 4 8 18 7 15 27 29 32 42 39 37 36 32 29 28 26 27 26 25 22 19 16 14 13 12 12 12 13 13 13 13 13 13 13 14 15
8 4 5 3 11 11 12 12 33 12 11 17 20 7 9 18 26 18 21 31 36 45 43 40 38 35 34 32 30 28 25 22 19 16 15 14 13 11 11 10 10 9 7 6 6 8 10 11 12
4 4 4 7 11 10 10 24 22 11 12 12 13 7 10 19 30 28 26 32 37 43 44 42 40 38 37 34 30 27 25 24 21 19 17 16 14 12 10 9 7 5 3 4 7 10 12 14 14
7 7 8 7 12 11 11 29 13 17 18 17 9 11 12 29 28 31 31 34 40 46 46 43 43 42 40 35 32 30 29 27 24 22 20 17 14 12 10 8 5 2 4 7 11 13 16 17 19
1 7 6 8 6 11 4 21 6 20 18 12 24 13 12 24 34 36 37 40 44 49 50 48 46 45 43 40 37 34 32 30 28 25 22 20 18 16 12 8 5 5 8 11 14 18 21 21 20
5 5 6 10 6 9 3 6 8 9 10 21 25 26 18 12 36 42 46 50 53 55 56 55 54 52 49 45 41 38 36 33 30 29 28 26 24 20 17 15 13 13 12 15 17 20 23 25 24
8 7 16 12 5 7 6 13 12 9 13 19 33 44 42 31 38 49 53 55 56 57 60 61 60 58 56 52 47 45 42 38 35 32 31 29 27 24 22 21 19 16 15 15 16 19 22 25 26
12 13 11 17 14 11 9 9 16 14 14 38 46 55 53 46 48 54 58 60 55 55 59 61 63 62 60 56 52 51 47 44 41 38 36 34 30 28 25 22 20 19 17 16 18 21 22 25 27
9 30 31 23 33 14 8 10 13 38 59 37 30 32 46 59 63 64 65 65 64 64 62 61 64 66 65 61 58 53 51 48 46 43 41 37 33 31 28 26 24 21 19 19 21 23 25 27 30
13 14 35 49 41 35 28 35 23 53 65 48 53 49 48 49 60 66 66 65 67 69 69 67 67 68 68 68 64 61 57 54 49 48 44 42 38 34 31 28 25 24 23 24 24 25 26 27 28
8 17 28 29 36 32 12 25 10 75 62 57 61 73 72 74 77 68 71 77 77 71 73 72 72 71 71 73 69 66 61 57 55 52 48 45 41 37 34 31 29 27 26 27 26 26 26 26 26
16 18 17 33 33 22 15 25 24 99 67 66 58 60 67 80 74 80 77 81 80 78 76 78 75 75 76 75 73 70 66 64 60 56 52 49 46 43 41 37 34 32 31 30 29 30 29 27 27
8 5 9 2 10 10 25 35 30 52 44 65 64 64 64 69 76 78 79 76 76 79 84 79 80 80 80 78 76 75 72 68 63 60 57 54 53 51 45 42 38 35 32 31 30 29 28 28 29
5 12 16 25 29 11 15 22 22 36 36 56 64 65 64 74 78 78 77 79 74 73 79 81 82 85 84 81 76 76 74 73 69 66 64 61 60 55 50 46 42 39 35 32 31 31 31 32 32
16 11 12 15 6 8 14 31 30 59 29 44 59 66 69 74 85 83 83 80 78 79 83 82 81 85 85 82 77 76 77 78 76 73 69 67 64 60 56 52 47 42 37 34 33 32 32 33 35
5 12 18 15 13 11 20 34 40 58 36 49 71 85 91 88 99 86 87 88 85 88 90 92 89 89 90 91 87 87 87 87 85 80 74 72 69 65 60 56 53 47 40 37 35 32 31 33 36
22 38 40 37 34 11 32 48 29 23 47 64 63 80 98 101 105 107 107 101 88 84 88 97 98 96 93 92 92 91 88 88 85 81 79 77 73 69 64 60 55 48 44 41 37 32 32 33 33
31 29 35 37 12 9 23 52 27 20 52 74 81 93 91 97 106 106 104 99 82 79 81 92 102 98 95 92 93 93 89 86 87 88 86 84 78 73 68 64 60 53 49 43 38 33 32 33 31
41 27 32 27 3 18 6 46 5 15 30 33 63 73 89 96 100 107 110 94 74 73 77 86 98 100 94 94 95 99 99 91 92 91 90 87 81 76 71 68 64 57 52 46 40 36 34 34 33
32 11 15 7 9 8 14 11 8 19 19 34 44 73 87 91 92 97 92 78 67 69 72 83 94 100 96 93 92 92 94 90 85 88 88 84 81 79 76 72 67 63 57 51 46 40 38 37 36
1 4 6 8 5 10 27 21 65 14 22 19 25 68 87 87 88 101 69 46 57 64 70 84 94 99 93 89 89 91 90 88 88 90 86 83 84 83 81 76 72 68 62 56 48 43 40 38 37
9 9 7 6 1 19 6 16 57 12 13 20 31 57 75 81 83 87 63 49 55 64 74 85 89 93 90 88 89 89 88 89 86 86 85 86 87 88 88 80 77 75 67 60 54 48 43 39 37
19 23 13 17 20 31 13 15 30 24 28 52 64 78 81 89 85 68 51 45 49 58 71 81 84 89 88 88 87 87 89 89 87 86 85 86 85 84 79 75 74 73 68 62 56 51 46 42 40
6 13 29 9 2 3 12 30 33 25 20 17 31 60 72 87 86 61 49 48 49 57 66 70 79 83 83 82 84 91 93 92 91 89 86 84 84 82 76 74 74 74 71 66 60 54 48 45 43
13 1 3 3 6 13 15 14 27 39 19 28 27 33 70 70 71 52 49 48 48 53 56 60 66 77 75 77 84 89 91 93 95 95 90 87 84 83 77 74 76 76 72 67 61 55 51 47 45
2 8 9 3 8 30 35 24 60 48 20 17 20 26 39 32 29 37 45 45 45 41 49 53 62 69 76 76 74 78 86 96 103 102 95 90 85 80 76 76 77 78 75 70 64 58 54 50 48
14 22 32 24 31 21 32 37 57 42 13 16 18 39 29 36 39 35 36 40 39 36 47 50 54 63 63 68 76 79 87 92 98 103 100 94 89 82 76 75 77 77 76 72 66 60 56 52 50
Wind_Direction_500mb
203 212 227 260 43 60 271 266 228 172 112 138 141 170 177 136 164 205 179 176 186 187 194 196 203 209 205 203 196 200 204 203 204 207 215 223 221 226 234 238 248 259 268 278 290 301 299 298 303
190 219 216 104 92 48 270 256 192 204 158 133 122 114 110 210 182 198 176 184 193 191 191 194 197 205 208 212 209 204 210 212 212 218 220 225 232 243 248 251 255 262 265 269 278 284 287 290 294
185 190 223 101 125 190 227 237 212 193 166 179 147 175 180 220 207 213 202 206 195 193 192 193 197 200 204 204 203 205 211 212 219 227 231 235 236 234 238 249 259 263 268 277 280 282 286 286 286
175 169 74 98 241 257 235 240 195 156 187 187 162 193 228 206 186 213 207 205 193 191 195 196 200 204 207 213 211 210 213 218 220 222 224 225 227 228 227 225 231 248 264 268 271 275 279 286 288
160 121 66 278 250 254 249 221 181 184 188 188 178 228 232 220 217 205 211 207 200 193 197 200 204 206 211 213 210 212 214 217 216 212 210 213 217 223 225 228 229 229 237 263 290 303 308 310 310
115 103 77 240 245 251 264 201 176 209 211 180 188 173 239 225 216 216 214 210 204 203 202 205 208 210 211 209 207 210 214 217 218 219 219 221 219 218 210 208 206 212 239 298 320 323 325 326 323
119 92 224 240 264 293 224 187 196 204 187 216 201 172 237 223 208 212 214 212 208 206 211 212 213 210 210 210 208 208 210 212 212 213 215 218 221 216 207 212 208 256 329 329 332 329 330 332 332
191 99 281 251 251 271 239 173 225 206 222 216 200 226 250 242 206 205 212 215 212 213 214 217 217 215 214 213 211 210 211 210 211 212 213 211 207 210 216 227 256 291 297 308 321 325 331 335 335
200 66 244 253 228 263 207 239 227 232 219 208 210 240 241 240 205 207 212 213 215 216 218 220 220 218 217 217 217 216 216 214 212 208 205 207 210 213 214 220 233 251 275 296 312 325 330 330 331
163 153 226 219 246 247 254 228 257 229 229 232 232 239 244 238 218 216 218 220 222 221 221 222 221 220 219 219 220 219 219 217 214 211 214 213 216 217 217 225 239 255 275 297 310 320 321 322 323
192 217 220 259 261 256 235 246 243 220 247 238 240 247 241 237 231 228 230 232 239 231 227 226 225 223 223 222 220 220 220 218 215 214 215 217 218 222 231 241 252 266 280 292 300 303 305 310 315
219 243 240 266 279 272 229 256 241 230 250 261 272 268 255 243 241 242 241 242 240 237 235 232 229 227 225 223 224 224 222 221 219 218 219 221 224 229 236 244 253 262 269 274 280 287 298 310 313
231 252 256 257 252 270 269 252 243 263 265 259 258 255 248 249 252 250 251 249 244 241 240 236 233 231 228 225 224 223 222 222 221 222 222 224 226 231 238 245 251 257 265 273 282 292 300 305 308
278 273 270 273 264 260 216 275 253 268 278 267 255 251 252 254 255 253 249 247 245 245 243 240 237 235 230 230 227 227 225 223 223 224 226 228 231 235 242 248 253 258 262 270 278 287 292 297 305
288 304 313 261 248 236 206 286 229 265 268 269 259 256 252 252 251 252 255 255 255 251 246 243 240 238 234 232 230 228 227 226 226 228 229 231 235 238 241 245 249 254 263 270 278 287 293 303 311
326 329 314 301 148 241 161 257 256 270 262 265 265 262 250 250 252 255 254 254 256 251 247 244 240 238 236 234 231 229 228 229 229 230 232 232 235 236 238 242 248 252 257 265 275 283 288 295 305
284 247 225 303 199 160 181 243 274 259 246 257 263 265 261 257 254 254 251 249 252 257 254 245 241 239 236 233 230 230 230 231 230 229 231 232 234 236 239 241 243 248 255 265 274 280 287 295 305
222 221 253 241 249 190 230 247 264 268 253 259 266 267 267 267 260 256 255 256 251 254 254 249 243 240 234 233 228 229 228 230 230 230 230 232 234 235 237 239 243 247 253 261 270 279 288 297 303
195 225 233 248 249 206 235 241 247 266 261 248 260 265 263 262 267 262 256 257 257 253 249 246 239 239 231 226 224 225 227 227 228 229 230 232 234 236 238 240 242 245 251 259 265 274 285 295 302
243 253 261 269 261 230 266 259 245 247 263 266 253 255 262 265 269 268 263 263 260 257 253 245 239 238 234 229 227 228 229 230 232 232 232 233 234 236 238 240 243 244 248 255 263 273 282 291 301
232 234 252 255 297 233 295 278 234 241 246 263 265 262 262 260 266 267 264 264 264 256 248 242 240 237 233 229 225 228 229 230 230 230 232 233 234 235 237 239 241 242 247 252 257 266 278 288 299
263 218 251 260 278 274 146 295 163 210 232 248 261 262 261 266 266 266 264 263 255 255 250 243 239 235 231 229 227 228 229 228 230 232 234 234 234 236 238 238 240 242 244 249 255 262 272 280 287
258 187 228 229 201 341 184 252 250 217 235 247 252 259 264 268 269 265 262 264 261 251 245 240 235 231 228 228 231 231 232 234 236 236 236 236 238 239 239 239 240 240 242 245 251 258 265 272 278
179 86 50 51 98 278 233 192 283 197 210 235 253 256 265 269 266 268 272 257 248 242 238 237 231 228 228 229 231 232 232 234 234 235 235 236 239 239 238 238 238 239 239 242 248 253 260 268 275
171 102 293 326 122 230 172 175 256 261 258 223 235 254 265 267 267 263 270 239 231 233 235 235 229 226 227 228 231 233 233 236 236 238 239 238 237 238 238 238 238 237 237 239 243 250 256 263 268
206 199 189 204 247 261 110 229 261 226 237 242 248 253 266 264 268 267 250 235 235 226 234 235 230 226 227 229 232 232 232 235 237 239 241 242 243 244 244 241 241 239 237 238 241 246 253 259 265
196 191 231 288 355 21 261 273 298 269 271 293 273 270 266 264 270 260 231 228 231 228 232 236 233 229 231 234 235 234 234 235 237 240 240 243 245 245 244 242 242 239 236 237 240 244 249 254 260
194 173 84 214 204 235 225 243 260 275 289 277 289 278 283 284 273 253 238 236 226 233 236 236 236 236 236 235 236 239 240 241 241 242 242 242 245 245 242 240 239 237 237 237 239 242 246 251 258
242 245 227 244 198 256 264 255 261 277 266 273 280 332 351 331 318 272 248 237 235 235 238 236 236 233 236 237 241 244 247 247 245 245 244 244 245 245 241 238 236 236 237 237 238 242 246 251 256
220 248 238 239 246 238 254 254 268 271 256 276 264 292 314 326 320 297 270 254 247 240 239 236 234 235 238 241 242 245 247 248 248 248 247 246 246 244 240 237 234 235 237 236 238 243 249 252 256
Wind_Speed_850mb
8 8 5 0 7 9 8 10 4 5 3 5 11 7 14 10 10 9 11 24 27 35 35 34 34 30 30 31 28 25 22 20 19 21 19 16 13 13 13 10 10 11 12 14 17 17 17 16 16
8 7 4 5 8 3 10 9 12 9 12 21 17 14 3 8 11 7 25 28 31 36 36 34 32 33 32 28 26 25 25 22 21 21 18 17 17 15 14 13 14 16 16 18 18 21 21 22 21
9 7 1 7 7 9 8 10 10 7 18 15 10 6 9 7 20 12 24 27 31 38 37 35 34 33 31 29 27 25 25 25 24 21 19 18 17 16 15 14 14 16 16 17 16 18 17 20 20
7 5 5 6 12 13 11 11 12 14 8 13 12 4 8 18 7 15 27 29 32 42 39 37 36 32 29 28 26 27 26 25 22 19 16 14 13 12 12 12 13 13 13 13 13 13 13 14 15
8 4 5 3 11 11 12 12 33 12 11 17 20 7 9 18 26 18 21 31 36 45 43 40 38 35 34 32 30 28 25 22 19 16 15 14 13 11 11 10 10 9 7 6 6 8 10 11 12
4 4 4 7 11 10 10 24 22 11 12 12 13 7 10 19 30 28 26 32 37 43 44 42 40 38 37 34 30 27 25 24 21 19 17 16 14 12 10 9 7 5 3 4 7 10 12 14 14
7 7 8 7 12 11 11 29 13 17 18 17 9 11 12 29 28 31 31 34 40 46 46 43 43 42 40 35 32 30 29 27 24 22 20 17 14 12 10 8 5 2 4 7 11 13 16 17 19
1 7 6 8 6 11 4 21 6 20 18 12 24 13 12 24 34 36 37 40 44 49 50 48 46 45 43 40 37 34 32 30 28 25 22 20 18 16 12 8 5 5 8 11 14 18 21 21 20
5 5 6 10 6 9 3 6 8 9 10 21 25 26 18 12 36 42 46 50 53 55 56 55 54 52 49 45 41 38 36 33 30 29 28 26 24 20 17 15 13 13 12 15 17 20 23 25 24
8 7 16 12 5 7 6 13 12 9 13 19 33 44 42 31 38 49 53 55 56 57 60 61 60 58 56 52 47 45 42 38 35 32 31 29 27 24 22 21 19 16 15 15 16 19 22 25 26
12 13 11 17 14 11 9 9 16 14 14 38 46 55 53 46 48 54 58 60 55 55 59 61 63 62 60 56 52 51 47 44 41 38 36 34 30 28 25 22 20 19 17 16 18 21 22 25 27
9 30 31 23 33 14 8 10 13 38 59 37 30 32 46 59 63 64 65 65 64 64 62 61 64 66 65 61 58 53 51 48 46 43 41 37 33 31 28 26 24 21 19 19 21 23 25 27 30
13 14 35 49 41 35 28 35 23 53 65 48 53 49 48 49 60 66 66 65 67 69 69 67 67 68 68 68 64 61 57 54 49 48 44 42 38 34 31 28 25 24 23 24 24 25 26 27 28
8 17 28 29 36 32 12 25 10 75 62 57 61 73 72 74 77 68 71 77 77 71 73 72 72 71 71 73 69 66 61 57 55 52 48 45 41 37 34 31 29 27 26 27 26 26 26 26 26
16 18 17 33 33 22 15 25 24 99 67 66 58 60 67 80 74 80 77 81 80 78 76 78 75 75 76 75 73 70 66 64 60 56 52 49 46 43 41 37 34 32 31 30 29 30 29 27 27
8 5 9 2 10 10 25 35 30 52 44 65 64 64 64 69 76 78 79 76 76 79 84 79 80 80 80 78 76 75 72 68 63 60 57 54 53 51 45 42 38 35 32 31 30 29 28 28 29
5 12 16 25 29 11 15 22 22 36 36 56 64 65 64 74 78 78 77 79 74 73 79 81 82 85 84 81 76 76 74 73 69 66 64 61 60 55 50 46 42 39 35 32 31 31 31 32 32
16 11 12 15 6 8 14 31 30 59 29 44 59 66 69 74 85 83 83 80 78 79 83 82 81 85 85 82 77 76 77 78 76 73 69 67 64 60 56 52 47 42 37 34 33 32 32 33 35
5 12 18 15 13 11 20 34 40 58 36 49 71 85 91 88 99 86 87 88 85 88 90 92 89 89 90 91 87 87 87 87 85 80 74 72 69 65 60 56 53 47 40 37 35 32 31 33 36
22 38 40 37 34 11 32 48 29 23 47 64 63 80 98 101 105 107 107 101 88 84 88 97 98 96 93 92 92 91 88 88 85 81 79 77 73 69 64 60 55 48 44 41 37 32 32 33 33
31 29 35 37 12 9 23 52 27 20 52 74 81 93 91 97 106 106 104 99 82 79 81 92 102 98 95 92 93 93 89 86 87 88 86 84 78 73 68 64 60 53 49 43 38 33 32 33 31
41 27 32 27 3 18 6 46 5 15 30 33 63 73 89 96 100 107 110 94 74 73 77 86 98 100 94 94 95 99 99 91 92 91 90 87 81 76 71 68 64 57 52 46 40 36 34 34 33
32 11 15 7 9 8 14 11 8 19 19 34 44 73 87 91 92 97 92 78 67 69 72 83 94 100 96 93 92 92 94 90 85 88 88 84 81 79 76 72 67 63 57 51 46 40 38 37 36
1 4 6 8 5 10 27 21 65 14 22 19 25 68 87 87 88 101 69 46 57 64 70 84 94 99 93 89 89 91 90 88 88 90 86 83 84 83 81 76 72 68 62 56 48 43 40 38 37
9 9 7 6 1 19 6 16 57 12 13 20 31 57 75 81 83 87 63 49 55 64 74 85 89 93 90 88 89 89 88 89 86 86 85 86 87 88 88 80 77 75 67 60 54 48 43 39 37
19 23 13 17 20 31 13 15 30 24 28 52 64 78 81 89 85 68 51 45 49 58 71 81 84 89 88 88 87 87 89 89 87 86 85 86 85 84 79 75 74 73 68 62 56 51 46 42 40
6 13 29 9 2 3 12 30 33 25 20 17 31 60 72 87 86 61 49 48 49 57 66 70 79 83 83 82 84 91 93 92 91 89 86 84 84 82 76 74 74 74 71 66 60 54 48 45 43
13 1 3 3 6 13 15 14 27 39 19 28 27 33 70 70 71 52 49 48 48 53 56 60 66 77 75 77 84 89 91 93 95 95 90 87 84 83 77 74 76 76 72 67 61 55 51 47 45
2 8 9 3 8 30 35 24 60 48 20 17 20 26 39 32 29 37 45 45 45 41 49 53 62 69 76 76 74 78 86 96 103 102 95 90 85 80 76 76 77 78 75 70 64 58 54 50 48
14 22 32 24 31 21 32 37 57 42 13 16 18 39 29 36 39 35 36 40 39 36 47 50 54 63 63 68 76 79 87 92 98 103 100 94 89 82 76 75 77 77 76 72 66 60 56 52 50
Wind_Direction_850mb
203 212 227 260 43 60 271 266 228 172 112 138 141 170 177 136 164 205 179 176 186 187 194 196 203 209 205 203 196 200 204 203 204 207 215 223 221 226 234 238 248 259 268 278 290 301 299 298 303
190 219 216 104 92 48 270 256 192 204 158 133 122 114 110 210 182 198 176 184 193 191 191 194 197 205 208 212 209 204 210 212 212 218 220 225 232 243 248 251 255 262 265 269 278 284 287 290 294
185 190 223 101 125 190 227 237 212 193 166 179 147 175 180 220 207 213 202 206 195 193 192 193 197 200 204 204 203 205 211 212 219 227 231 235 236 234 238 249 259 263 268 277 280 282 286 286 286
175 169 74 98 241 257 235 240 195 156 187 187 162 193 228 206 186 213 207 205 193 191 195 196 200 204 207 213 211 210 213 218 220 222 224 225 227 228 227 225 231 248 264 268 271 275 279 286 288
160 121 66 278 250 254 249 221 181 184 188 188 178 228 232 220 217 205 211 207 200 193 197 200 204 206 211 213 210 212 214 217 216 212 210 213 217 223 225 228 229 229 237 263 290 303 308 310 310
115 103 77 240 245 251 264 201 176 209 211 180 188 173 239 225 216 216 214 210 204 203 202 205 208 210 211 209 207 210 214 217 218 219 219 221 219 218 210 208 206 212 239 298 320 323 325 326 323
119 92 224 240 264 293 224 187 196 204 187 216 201 172 237 223 208 212 214 212 208 206 211 212 213 210 210 210 208 208 210 212 212 213 215 218 221 216 207 212 208 256 329 329 332 329 330 332 332
191 99 281 251 251 271 239 173 225 206 222 216 200 226 250 242 206 205 212 215 212 213 214 217 217 215 214 213 211 210 211 210 211 212 213 211 207 210 216 227 256 291 297 308 321 325 331 335 335
200 66 244 253 228 263 207 239 227 232 219 208 210 240 241 240 205 207 212 213 215 216 218 220 220 218 217 217 217 216 216 214 212 208 205 207 210 213 214 220 233 251 275 296 312 325 330 330 331
163 153 226 219 246 247 254 228 257 229 229 232 232 239 244 238 218 216 218 220 222 221 221 222 221 220 219 219 220 219 219 217 214 211 214 213 216 217 217 225 239 255 275 297 310 320 321 322 323
192 217 220 259 261 256 235 246 243 220 247 238 240 247 241 237 231 228 230 232 239 231 227 226 225 223 223 222 220 220 220 218 215 214 215 217 218 222 231 241 252 266 280 292 300 303 305 310 315
219 243 240 266 279 272 229 256 241 230 250 261 272 268 255 243 241 242 241 242 240 237 235 232 229 227 225 223 224 224 222 221 219 218 219 221 224 229 236 244 253 262 269 274 280 287 298 310 313
231 252 256 257 252 270 269 252 243 263 265 259 258 255 248 249 252 250 251 249 244 241 240 236 233 231 228 225 224 223 222 222 221 222 222 224 226 231 238 245 251 257 265 273 282 292 300 305 308
278 273 270 273 264 260 216 275 253 268 278 267 255 251 252 254 255 253 249 247 245 245 243 240 237 235 230 230 227 227 225 223 223 224 226 228 231 235 242 248 253 258 262 270 278 287 292 297 305
288 304 313 261 248 236 206 286 229 265 268 269 259 256 252 252 251 252 255 255 255 251 246 243 240 238 234 232 230 228 227 226 226 228 229 231 235 238 241 245 249 254 263 270 278 287 293 303 311
326 329 314 301 148 241 161 257 256 270 262 265 265 262 250 250 252 255 254 254 256 251 247 244 240 238 236 234 231 229 228 229 229 230 232 232 235 236 238 242 248 252 257 265 275 283 288 295 305
284 247 225 303 199 160 181 243 274 259 246 257 263 265 261 257 254 254 251 249 252 257 254 245 241 239 236 233 230 230 230 231 230 229 231 232 234 236 239 241 243 248 255 265 274 280 287 295 305
222 221 253 241 249 190 230 247 264 268 253 259 266 267 267 267 260 256 255 256 251 254 254 249 243 240 234 233 228 229 228 230 230 230 230 232 234 235 237 239 243 247 253 261 270 279 288 297 303
195 225 233 248 249 206 235 241 247 266 261 248 260 265 263 262 267 262 256 257 257 253 249 246 239 239 231 226 224 225 227 227 228 229 230 232 234 236 238 240 242 245 251 259 265 274 285 295 302
243 253 261 269 261 230 266 259 245 247 263 266 253 255 262 265 269 268 263 263 260 257 253 245 239 238 234 229 227 228 229 230 232 232 232 233 234 236 238 240 243 244 248 255 263 273 282 291 301
232 234 252 255 297 233 295 278 234 241 246 263 265 262 262 260 266 267 264 264 264 256 248 242 240 237 233 229 225 228 229 230 230 230 232 233 234 235 237 239 241 242 247 252 257 266 278 288 299
263 218 251 260 278 274 146 295 163 210 232 248 261 262 261 266 266 266 264 263 255 255 250 243 239 235 231 229 227 228 229 228 230 232 234 234 234 236 238 238 240 242 244 249 255 262 272 280 287
258 187 228 229 201 341 184 252 250 217 235 247 252 259 264 268 269 265 262 264 261 251 245 240 235 231 228 228 231 231 232 234 236 236 236 236 238 239 239 239 240 240 242 245 251 258 265 272 278
179 86 50 51 98 278 233 192 283 197 210 235 253 256 265 269 266 268 272 257 248 242 238 237 231 228 228 229 231 232 232 234 234 235 235 236 239 239 238 238 238 239 239 242 248 253 260 268 275
171 102 293 326 122 230 172 175 256 261 258 223 235 254 265 267 267 263 270 239 231 233 235 235 229 226 227 228 231 233 233 236 236 238 239 238 237 238 238 238 238 237 237 239 243 250 256 263 268
206 199 189 204 247 261 110 229 261 226 237 242 248 253 266 264 268 267 250 235 235 226 234 235 230 226 227 229 232 232 232 235 237 239 241 242 243 244 244 241 241 239 237 238 241 246 253 259 265
196 191 231 288 355 21 261 273 298 269 271 293 273 270 266 264 270 260 231 228 231 228 232 236 233 229 231 234 235 234 234 235 237 240 240 243 245 245 244 242 242 239 236 237 240 244 249 254 260
194 173 84 214 204 235 225 243 260 275 289 277 289 278 283 284 273 253 238 236 226 233 236 236 236 236 236 235 236 239 240 241 241 242 242 242 245 245 242 240 239 237 237 237 239 242 246 251 258
242 245 227 244 198 256 264 255 261 277 266 273 280 332 351 331 318 272 248 237 235 235 238 236 236 233 236 237 241 244 247 247 245 245 244 244 245 245 241 238 236 236 237 237 238 242 246 251 256
220 248 238 239 246 238 254 254 268 271 256 276 264 292 314 326 320 297 270 254 247 240 239 236 234 235 238 241 242 245 247 248 248 248 247 246 246 244 240 237 234 235 237 236 238 243 249 252 256